TimeEDT,TemperatureF,Dew PointF,Humidity,Sea Level PressureIn,VisibilityMPH,Wind Direction,Wind SpeedMPH,Gust SpeedMPH,PrecipitationIn,Events,Conditions,WindDirDegrees,DateUTC
12:53 AM,77.9,73.4,86,30.03,10.0,Calm,Calm,-,0.00,,Mostly Cloudy,0,2012-09-20 04:53:00
1:53 AM,77.2,72.3,85,30.01,10.0,Calm,Calm,-,N/A,,Mostly Cloudy,0,2012-09-20 05:53:00
2:53 AM,75.9,72.0,87,29.99,10.0,WSW,4.6,-,N/A,,Mostly Cloudy,240,2012-09-20 06:53:00
3:53 AM,76.3,71.6,85,29.97,10.0,NNW,3.5,-,N/A,,Scattered Clouds,340,2012-09-20 07:53:00
4:53 AM,76.3,71.8,86,29.97,10.0,Calm,Calm,-,N/A,,Scattered Clouds,0,2012-09-20 08:53:00
5:53 AM,76.3,72.7,89,29.98,10.0,Calm,Calm,-,N/A,,Scattered Clouds,0,2012-09-20 09:53:00
6:53 AM,77.0,72.3,85,29.99,10.0,NNW,3.5,-,N/A,,Mostly Cloudy,340,2012-09-20 10:53:00
7:53 AM,76.6,71.1,83,30.01,10.0,Calm,Calm,-,N/A,,Mostly Cloudy,0,2012-09-20 11:53:00
8:53 AM,82.0,73.9,76,30.01,10.0,NNE,6.9,-,N/A,,Mostly Cloudy,30,2012-09-20 12:53:00
9:53 AM,82.9,72.0,69,30.03,10.0,NNE,6.9,-,N/A,,Mostly Cloudy,30,2012-09-20 13:53:00
10:53 AM,84.9,73.9,69,30.03,10.0,North,9.2,-,N/A,,Mostly Cloudy,10,2012-09-20 14:53:00
11:53 AM,87.1,73.0,63,30.02,10.0,NE,10.4,-,N/A,,Mostly Cloudy,40,2012-09-20 15:53:00
12:53 PM,86.0,73.0,65,30.01,10.0,NE,8.1,-,N/A,,Mostly Cloudy,40,2012-09-20 16:53:00
1:53 PM,87.1,71.1,59,30.00,10.0,NE,10.4,-,N/A,,Mostly Cloudy,40,2012-09-20 17:53:00
2:53 PM,87.1,72.0,61,29.97,10.0,ENE,9.2,-,N/A,,Mostly Cloudy,60,2012-09-20 18:53:00
3:53 PM,87.1,72.0,61,29.94,10.0,ENE,10.4,-,N/A,,Mostly Cloudy,60,2012-09-20 19:53:00
4:53 PM,86.0,72.0,63,29.93,10.0,ENE,10.4,-,N/A,,Mostly Cloudy,60,2012-09-20 20:53:00
5:53 PM,84.9,70.0,61,29.96,10.0,ENE,6.9,-,N/A,,Mostly Cloudy,60,2012-09-20 21:53:00
6:53 PM,84.0,71.1,65,29.95,10.0,East,8.1,-,N/A,,Mostly Cloudy,100,2012-09-20 22:53:00
7:53 PM,84.0,72.0,67,29.98,10.0,ENE,4.6,-,N/A,,Mostly Cloudy,70,2012-09-20 23:53:00
8:53 PM,82.9,72.0,69,29.99,10.0,NNE,3.5,-,N/A,,Mostly Cloudy,20,2012-09-21 00:53:00
9:53 PM,82.9,72.0,69,30.00,10.0,Calm,Calm,-,N/A,,Mostly Cloudy,0,2012-09-21 01:53:00
10:53 PM,81.0,73.0,77,30.00,10.0,NNW,3.5,-,N/A,,Mostly Cloudy,330,2012-09-21 02:53:00
11:53 PM,82.0,73.0,74,29.97,10.0,Calm,Calm,-,N/A,,Mostly Cloudy,0,2012-09-21 03:53:00